When you browse on this site, cookies collect data to enhance your experience and personalize the content and advertising you see.
Visit our Privacy Policy to learn more. By continuing to use the site, you agree to this use of cookies and data.

Hourly Weather Tarim

Today, 12 August, Wednesday

Time Temperature Precipitation Wind Pressure Humidity
00:00 +38°C° 0 mm 4 mps 702 mmHg 18%
01:00 +37°C° 0 mm 3 mps 702 mmHg 18%
02:00 +36°C° 0 mm 3 mps 701 mmHg 19%
03:00 +35°C° 0 mm 2 mps 701 mmHg 20%
04:00 +34°C° 0 mm 1 mps 701 mmHg 21%
05:00 +34°C° 0 mm 1 mps 701 mmHg 22%
06:00 +31°C° 0 mm 0 mps 702 mmHg 23%
07:00 +33°C° 0 mm 0 mps 702 mmHg 20%
08:00 +35°C° 0 mm 0 mps 702 mmHg 17%
09:00 +39°C° 0 mm 1 mps 703 mmHg 14%
10:00 +40°C° 0 mm 1 mps 703 mmHg 13%
11:00 +41°C° 0 mm 1 mps 702 mmHg 12%
12:00 +42°C° 0 mm 1 mps 702 mmHg 11%
13:00 +43°C° 0 mm 2 mps 702 mmHg 12%
14:00 +43°C° 0 mm 2 mps 701 mmHg 12%
15:00 +44°C° 0 mm 3 mps 700 mmHg 13%
16:00 +44°C° 0 mm 3 mps 700 mmHg 15%
17:00 +44°C° 0 mm 3 mps 701 mmHg 16%
18:00 +43°C° 0 mm 4 mps 701 mmHg 18%
19:00 +42°C° 0 mm 5 mps 701 mmHg 23%
20:00 +41°C° 0 mm 6 mps 702 mmHg 29%
21:00 +39°C° 0 mm 7 mps 702 mmHg 34%
22:00 +39°C° 0 mm 6 mps 702 mmHg 36%
23:00 +37°C° 0 mm 5 mps 702 mmHg 38%

Tomorrow, 13 August, Thursday

Time Temperature Precipitation Wind Pressure Humidity
00:00 +36°C° 0 mm 4 mps 702 mmHg 40%
01:00 +36°C° 0.2 mm 4 mps 702 mmHg 40%
02:00 +35°C° 0.2 mm 3 mps 702 mmHg 40%
03:00 +35°C° 0.2 mm 2 mps 701 mmHg 40%
04:00 +35°C° 0.1 mm 2 mps 702 mmHg 39%
05:00 +35°C° 0.1 mm 2 mps 702 mmHg 39%
06:00 +34°C° 0.1 mm 2 mps 702 mmHg 39%
07:00 +35°C° 0.1 mm 2 mps 702 mmHg 37%
08:00 +36°C° 0.1 mm 3 mps 703 mmHg 36%
09:00 +36°C° 0.1 mm 3 mps 703 mmHg 34%
10:00 +37°C° 0.4 mm 3 mps 703 mmHg 33%
11:00 +38°C° 0.4 mm 2 mps 702 mmHg 31%
12:00 +37°C° 0.4 mm 1 mps 702 mmHg 30%
13:00 +39°C° 0 mm 2 mps 701 mmHg 29%
14:00 +40°C° 0 mm 4 mps 701 mmHg 28%
15:00 +41°C° 0 mm 5 mps 701 mmHg 28%
16:00 +40°C° 0.1 mm 5 mps 701 mmHg 29%
17:00 +39°C° 0.1 mm 5 mps 701 mmHg 31%
18:00 +37°C° 0.1 mm 4 mps 701 mmHg 33%
19:00 +36°C° 0.1 mm 5 mps 701 mmHg 38%
20:00 +35°C° 0.1 mm 5 mps 702 mmHg 42%
21:00 +34°C° 0.1 mm 5 mps 702 mmHg 47%
22:00 +34°C° 0 mm 4 mps 702 mmHg 47%
23:00 +34°C° 0 mm 3 mps 702 mmHg 47%

Day after tomorrow, 14 August, Friday

Time Temperature Precipitation Wind Pressure Humidity
00:00 +34°C° 0 mm 2 mps 701 mmHg 47%
01:00 +34°C° 0 mm 2 mps 701 mmHg 47%
02:00 +34°C° 0 mm 2 mps 701 mmHg 46%
03:00 +34°C° 0 mm 2 mps 701 mmHg 46%
04:00 +34°C° 0 mm 2 mps 701 mmHg 45%
05:00 +34°C° 0 mm 3 mps 701 mmHg 44%
06:00 +34°C° 0 mm 3 mps 701 mmHg 44%
07:00 +34°C° 0 mm 3 mps 702 mmHg 41%
08:00 +35°C° 0 mm 4 mps 702 mmHg 39%
09:00 +36°C° 0 mm 4 mps 702 mmHg 37%
10:00 +36°C° 0 mm 5 mps 702 mmHg 34%
11:00 +37°C° 0 mm 5 mps 701 mmHg 32%
12:00 +39°C° 0 mm 6 mps 701 mmHg 29%
13:00 +40°C° 0 mm 5 mps 701 mmHg 27%
14:00 +41°C° 0 mm 4 mps 700 mmHg 25%
15:00 +41°C° 0 mm 4 mps 700 mmHg 23%
16:00 +40°C° 0.1 mm 4 mps 700 mmHg 27%
17:00 +38°C° 0.1 mm 3 mps 700 mmHg 30%
18:00 +36°C° 0.1 mm 3 mps 700 mmHg 34%
19:00 +36°C° 0 mm 2 mps 700 mmHg 33%
20:00 +36°C° 0 mm 2 mps 701 mmHg 33%
21:00 +36°C° 0 mm 1 mps 701 mmHg 32%
22:00 +36°C° 0 mm 2 mps 701 mmHg 32%
23:00 +36°C° 0 mm 2 mps 701 mmHg 32%

15 August, Saturday

Time Temperature Precipitation Wind Pressure Humidity
00:00 +36°C° 0 mm 3 mps 700 mmHg 32%
01:00 +36°C° 0 mm 2 mps 700 mmHg 33%
02:00 +35°C° 0 mm 2 mps 700 mmHg 34%
03:00 +35°C° 0 mm 2 mps 699 mmHg 35%
04:00 +34°C° 0 mm 2 mps 699 mmHg 37%
05:00 +34°C° 0 mm 3 mps 700 mmHg 38%
06:00 +34°C° 0 mm 3 mps 700 mmHg 39%
07:00 +36°C° 0 mm 4 mps 700 mmHg 35%
08:00 +37°C° 0 mm 5 mps 700 mmHg 31%
09:00 +40°C° 0 mm 5 mps 701 mmHg 28%
10:00 +41°C° 0 mm 5 mps 701 mmHg 25%
11:00 +42°C° 0 mm 5 mps 700 mmHg 23%
12:00 +43°C° 0 mm 5 mps 700 mmHg 20%
13:00 +43°C° 0 mm 4 mps 700 mmHg 19%
14:00 +44°C° 0 mm 3 mps 699 mmHg 18%
15:00 +44°C° 0 mm 3 mps 699 mmHg 17%
16:00 +42°C° 0 mm 4 mps 699 mmHg 22%
17:00 +41°C° 0 mm 5 mps 699 mmHg 27%
18:00 +39°C° 0 mm 6 mps 699 mmHg 32%
19:00 +39°C° 0.1 mm 6 mps 699 mmHg 32%
20:00 +39°C° 0.1 mm 6 mps 700 mmHg 32%
21:00 +39°C° 0.1 mm 6 mps 701 mmHg 32%
22:00 +37°C° 0 mm 5 mps 700 mmHg 32%
23:00 +37°C° 0 mm 5 mps 700 mmHg 33%

16 August, Sunday

Time Temperature Precipitation Wind Pressure Humidity
00:00 +37°C° 0 mm 4 mps 700 mmHg 33%
01:00 +36°C° 0 mm 4 mps 699 mmHg 35%
02:00 +36°C° 0 mm 3 mps 699 mmHg 37%
03:00 +35°C° 0 mm 3 mps 699 mmHg 40%
04:00 +35°C° 0 mm 3 mps 699 mmHg 41%
05:00 +34°C° 0 mm 3 mps 699 mmHg 42%
06:00 +34°C° 0 mm 2 mps 700 mmHg 43%
07:00 +35°C° 0 mm 4 mps 700 mmHg 39%
08:00 +37°C° 0 mm 5 mps 701 mmHg 34%
09:00 +39°C° 0 mm 6 mps 701 mmHg 30%
10:00 +40°C° 0 mm 6 mps 701 mmHg 27%
11:00 +42°C° 0 mm 6 mps 701 mmHg 23%
12:00 +45°C° 0 mm 5 mps 700 mmHg 20%
13:00 +45°C° 0 mm 5 mps 700 mmHg 19%
14:00 +45°C° 0 mm 4 mps 700 mmHg 17%
15:00 +45°C° 0 mm 4 mps 699 mmHg 16%
16:00 +43°C° 0 mm 5 mps 699 mmHg 19%
17:00 +42°C° 0 mm 5 mps 699 mmHg 23%
18:00 +40°C° 0 mm 6 mps 699 mmHg 26%
19:00 +40°C° 0 mm 5 mps 700 mmHg 28%
20:00 +39°C° 0 mm 5 mps 700 mmHg 30%
21:00 +38°C° 0 mm 4 mps 701 mmHg 32%
22:00 +37°C° 0 mm 4 mps 700 mmHg 32%
23:00 +37°C° 0 mm 3 mps 700 mmHg 33%

17 August, Monday

Time Temperature Precipitation Wind Pressure Humidity
00:00 +36°C° 0 mm 2 mps 700 mmHg 34%
01:00 +36°C° 0 mm 2 mps 700 mmHg 36%
02:00 +36°C° 0 mm 2 mps 700 mmHg 37%
03:00 +35°C° 0 mm 2 mps 699 mmHg 39%
04:00 +35°C° 0 mm 2 mps 700 mmHg 40%
05:00 +34°C° 0 mm 3 mps 700 mmHg 41%
06:00 +34°C° 0 mm 3 mps 701 mmHg 43%
07:00 +35°C° 0 mm 5 mps 701 mmHg 38%
08:00 +38°C° 0 mm 6 mps 701 mmHg 34%
09:00 +39°C° 0 mm 8 mps 702 mmHg 29%
10:00 +41°C° 0 mm 7 mps 701 mmHg 26%
11:00 +44°C° 0 mm 7 mps 701 mmHg 22%
12:00 +45°C° 0 mm 6 mps 700 mmHg 19%
13:00 +46°C° 0 mm 5 mps 700 mmHg 17%
14:00 +45°C° 0 mm 3 mps 699 mmHg 15%
15:00 +45°C° 0 mm 2 mps 699 mmHg 13%
16:00 +45°C° 0 mm 3 mps 699 mmHg 14%
17:00 +44°C° 0 mm 3 mps 699 mmHg 15%
18:00 +44°C° 0 mm 3 mps 699 mmHg 16%
19:00 +43°C° 0 mm 4 mps 700 mmHg 20%
20:00 +42°C° 0 mm 4 mps 700 mmHg 23%
21:00 +41°C° 0 mm 5 mps 701 mmHg 27%
22:00 +40°C° 0 mm 4 mps 701 mmHg 31%
23:00 +38°C° 0 mm 3 mps 700 mmHg 35%
Show more